Location: Risskov
(56.1972°N, 10.2480°E)
Time: 12:40:16
(UTC+00:00)

Cosmos 1766 Rocket - Pass Details

Date: 05 July 2020
Orbit: 606 x 632 km, 82.5° (Epoch: 06 August)

Event Time Altitude Azimuth Distance (km) Brightness Sun altitude
Exits shadow 22:44:24 15° 176° (S) 1,673 5.1 -10.7°
Maximum altitude 22:47:57 64° 98° (E) 690 3.7 -10.8°
Drops below altitude 10° 22:52:22 10° 17° (NNE) 2,007 7.3 -10.9°
Sets 22:54:37 0° 14° (NNE) 2,923 8.5 -10.9°
